| time (UTC) | temp F | wind direction | speed MPH | gust MPH | rain 1hr in | rain 24hr in | rain mn in | humidity % | barometer mb |
| 20260505164436 | 78 | 175 | 19.0 | 22.0 | 0.00 | 0.00 | 0.00 | 74 | 1005.4 |
| 20260505163934 | 78 | 154 | 15.0 | 20.0 | 0.00 | 0.00 | 0.00 | 74 | 1005.5 |
| 20260505163433 | 78 | 174 | 16.0 | 21.0 | 0.00 | 0.00 | 0.00 | 75 | 1005.4 |
| 20260505162932 | 78 | 181 | 11.0 | 23.0 | 0.00 | 0.00 | 0.00 | 75 | 1005.6 |
| 20260505162427 | 78 | 154 | 11.0 | 21.0 | 0.00 | 0.00 | 0.00 | 75 | 1005.3 |
| 20260505161924 | 77 | 161 | 15.0 | 23.0 | 0.00 | 0.00 | 0.00 | 75 | 1005.4 |
| 20260505161421 | 78 | 163 | 11.0 | 22.0 | 0.00 | 0.00 | 0.00 | 75 | 1005.4 |
| 20260505160918 | 77 | 167 | 11.0 | 23.0 | 0.00 | 0.00 | 0.00 | 76 | 1005.4 |
| 20260505160416 | 77 | 162 | 13.0 | 26.0 | 0.00 | 0.00 | 0.00 | 77 | 1005.2 |
| 20260505153355 | 75 | 146 | 12.0 | 24.0 | 0.00 | 0.00 | 0.00 | 79 | 1005.6 |
| 20260505152852 | 75 | 145 | 10.0 | 17.0 | 0.00 | 0.00 | 0.00 | 78 | 1005.6 |
| 20260505152350 | 75 | 217 | 8.0 | 16.0 | 0.00 | 0.00 | 0.00 | 79 | 1005.6 |
| 20260505151849 | 75 | 145 | 11.0 | 21.0 | 0.00 | 0.00 | 0.00 | 80 | 1005.5 |
| 20260505151346 | 75 | 182 | 6.0 | 18.0 | 0.00 | 0.00 | 0.00 | 80 | 1005.5 |
| 20260505150843 | 75 | 151 | 18.0 | 19.0 | 0.00 | 0.00 | 0.00 | 80 | 1005.4 |
| 20260505150340 | 74 | 151 | 15.0 | 25.0 | 0.00 | 0.00 | 0.00 | 80 | 1005.5 |
| 20260505140304 | 73 | 174 | 11.0 | 18.0 | 0.00 | 0.00 | 0.00 | 83 | 1005.6 |
| 20260505130228 | 71 | 165 | 12.0 | 15.0 | 0.00 | 0.00 | 0.00 | 85 | 1005.2 |
| 20260505124718 | 71 | 137 | 10.0 | 13.0 | 0.00 | 0.00 | 0.00 | 85 | 1005.3 |
| 20260505124215 | 71 | 146 | 11.0 | 14.0 | 0.00 | 0.00 | 0.00 | 85 | 1004.9 |
| 20260505123711 | 71 | 160 | 10.0 | 15.0 | 0.00 | 0.00 | 0.00 | 85 | 1004.6 |
| 20260505123208 | 71 | 156 | 8.0 | 17.0 | 0.00 | 0.00 | 0.00 | 85 | 1004.7 |
| 20260505122704 | 71 | 176 | 10.0 | 15.0 | 0.00 | 0.00 | 0.00 | 85 | 1004.7 |
| 20260505122201 | 71 | 172 | 6.0 | 25.0 | 0.00 | 0.00 | 0.00 | 85 | 1004.8 |
| 20260505121658 | 71 | 147 | 10.0 | 17.0 | 0.00 | 0.00 | 0.00 | 85 | 1004.6 |
| 20260505121154 | 71 | 150 | 11.0 | 19.0 | 0.00 | 0.00 | 0.00 | 85 | 1004.7 |
| 20260505120651 | 71 | 163 | 9.0 | 19.0 | 0.00 | 0.00 | 0.00 | 85 | 1004.4 |
| 20260505120147 | 71 | 137 | 14.0 | 16.0 | 0.00 | 0.00 | 0.00 | 85 | 1004.6 |
| 20260505115641 | 71 | 159 | 11.0 | 20.0 | 0.00 | 0.00 | 0.00 | 85 | 1004.5 |
| 20260505115139 | 71 | 169 | 12.0 | 15.0 | 0.00 | 0.00 | 0.00 | 85 | 1004.6 |
| 20260505114636 | 71 | 161 | 12.0 | 17.0 | 0.00 | 0.00 | 0.00 | 85 | 1004.6 |
| 20260505114132 | 71 | 163 | 10.0 | 19.0 | 0.00 | 0.00 | 0.00 | 86 | 1004.7 |
| 20260505113628 | 71 | 162 | 8.0 | 17.0 | 0.00 | 0.00 | 0.00 | 86 | 1004.3 |
| 20260505113125 | 71 | 155 | 11.0 | 12.0 | 0.00 | 0.00 | 0.00 | 86 | 1004.4 |
| 20260505112621 | 71 | 137 | 16.0 | 19.0 | 0.00 | 0.00 | 0.00 | 86 | 1004.5 |
| 20260505112120 | 71 | 164 | 12.0 | 16.0 | 0.00 | 0.00 | 0.00 | 86 | 1004.7 |
| 20260505111619 | 71 | 167 | 11.0 | 15.0 | 0.00 | 0.00 | 0.00 | 86 | 1004.8 |
| 20260505111115 | 71 | 146 | 17.0 | 20.0 | 0.00 | 0.00 | 0.00 | 85 | 1004.5 |
| 20260505110612 | 71 | 152 | 11.0 | 14.0 | 0.00 | 0.00 | 0.00 | 85 | 1004.5 |
| 20260505110109 | 71 | 137 | 8.0 | 15.0 | 0.00 | 0.00 | 0.00 | 85 | 1004.5 |
| 20260505102044 | 71 | 163 | 8.0 | 17.0 | 0.00 | 0.00 | 0.00 | 85 | 1004.6 |
| 20260505101543 | 71 | 151 | 14.0 | 17.0 | 0.00 | 0.00 | 0.00 | 84 | 1004.6 |
| 20260505101039 | 71 | 163 | 11.0 | 15.0 | 0.00 | 0.00 | 0.00 | 84 | 1004.7 |
| 20260505100536 | 71 | 148 | 18.0 | 22.0 | 0.00 | 0.00 | 0.00 | 84 | 1004.6 |
| 20260505100033 | 71 | 168 | 8.0 | 17.0 | 0.00 | 0.00 | 0.00 | 84 | 1004.9 |
| 20260505095529 | 71 | 142 | 8.0 | 19.0 | 0.00 | 0.00 | 0.00 | 84 | 1004.9 |
| 20260505095025 | 71 | 194 | 6.0 | 14.0 | 0.00 | 0.00 | 0.00 | 84 | 1005.0 |
| 20260505094522 | 71 | 171 | 12.0 | 16.0 | 0.00 | 0.00 | 0.00 | 84 | 1005.1 |
| 20260505094018 | 71 | 160 | 13.0 | 15.0 | 0.00 | 0.00 | 0.00 | 84 | 1004.8 |
| 20260505093515 | 71 | 153 | 9.0 | 14.0 | 0.00 | 0.00 | 0.00 | 84 | 1005.0 |
| 20260505093012 | 71 | 178 | 9.0 | 15.0 | 0.00 | 0.00 | 0.00 | 84 | 1004.8 |
| 20260505092509 | 71 | 142 | 11.0 | 18.0 | 0.00 | 0.00 | 0.00 | 84 | 1005.1 |
| 20260505092008 | 71 | 165 | 7.0 | 18.0 | 0.00 | 0.00 | 0.00 | 84 | 1004.8 |
| 20260505091504 | 71 | 188 | 8.0 | 17.0 | 0.00 | 0.00 | 0.00 | 84 | 1004.7 |
| 20260505091002 | 71 | 190 | 9.0 | 16.0 | 0.00 | 0.00 | 0.00 | 84 | 1004.8 |
| 20260505090500 | 71 | 160 | 8.0 | 20.0 | 0.00 | 0.00 | 0.00 | 84 | 1004.6 |
| 20260505085957 | 71 | 147 | 15.0 | 17.0 | 0.00 | 0.00 | 0.00 | 84 | 1004.5 |
| 20260505085455 | 71 | 158 | 11.0 | 23.0 | 0.00 | 0.00 | 0.00 | 84 | 1004.6 |
| 20260505084953 | 71 | 173 | 11.0 | 20.0 | 0.00 | 0.00 | 0.00 | 84 | 1004.5 |
| 20260505084451 | 71 | 176 | 15.0 | 18.0 | 0.00 | 0.00 | 0.00 | 84 | 1004.9 |
| 20260505083949 | 71 | 139 | 6.0 | 20.0 | 0.00 | 0.00 | 0.00 | 84 | 1004.7 |
| 20260505083446 | 71 | 166 | 4.0 | 15.0 | 0.00 | 0.00 | 0.00 | 84 | 1004.9 |
| 20260505082942 | 71 | 155 | 12.0 | 17.0 | 0.00 | 0.00 | 0.00 | 84 | 1004.8 |
| 20260505082438 | 71 | 177 | 9.0 | 17.0 | 0.00 | 0.00 | 0.00 | 84 | 1005.0 |
| 20260505081935 | 71 | 166 | 12.0 | 21.0 | 0.00 | 0.00 | 0.00 | 84 | 1004.8 |
| 20260505081432 | 71 | 158 | 16.0 | 21.0 | 0.00 | 0.00 | 0.00 | 84 | 1005.0 |
| 20260505080928 | 71 | 152 | 11.0 | 15.0 | 0.00 | 0.00 | 0.00 | 84 | 1005.1 |
| 20260505080425 | 71 | 169 | 9.0 | 19.0 | 0.00 | 0.00 | 0.00 | 84 | 1005.1 |
| 20260505075920 | 71 | 151 | 9.0 | 19.0 | 0.00 | 0.00 | 0.00 | 84 | 1005.4 |
| 20260505075417 | 71 | 168 | 7.0 | 21.0 | 0.00 | 0.00 | 0.00 | 84 | 1005.2 |
| 20260505074915 | 71 | 135 | 12.0 | 19.0 | 0.00 | 0.00 | 0.00 | 84 | 1005.2 |
| 20260505074412 | 71 | 152 | 16.0 | 21.0 | 0.00 | 0.00 | 0.00 | 84 | 1005.4 |
| 20260505073909 | 71 | 170 | 8.0 | 15.0 | 0.00 | 0.00 | 0.00 | 84 | 1005.6 |
| 20260505073407 | 71 | 164 | 9.0 | 17.0 | 0.00 | 0.00 | 0.00 | 84 | 1005.5 |
| 20260505072904 | 71 | 152 | 9.0 | 17.0 | 0.00 | 0.00 | 0.00 | 84 | 1005.6 |
| 20260505072359 | 71 | 147 | 10.0 | 14.0 | 0.00 | 0.00 | 0.00 | 84 | 1005.7 |
| 20260505071856 | 71 | 170 | 7.0 | 19.0 | 0.00 | 0.00 | 0.00 | 84 | 1005.7 |
| 20260505071352 | 71 | 145 | 10.0 | 16.0 | 0.00 | 0.00 | 0.00 | 84 | 1005.8 |
| 20260505070850 | 71 | 153 | 6.0 | 19.0 | 0.00 | 0.00 | 0.00 | 83 | 1005.7 |
| 20260505070346 | 71 | 163 | 9.0 | 17.0 | 0.00 | 0.00 | 0.00 | 83 | 1005.8 |
| 20260505065842 | 71 | 143 | 6.0 | 12.0 | 0.00 | 0.00 | 0.00 | 83 | 1006.0 |
| 20260505065339 | 71 | 184 | 8.0 | 19.0 | 0.00 | 0.00 | 0.00 | 83 | 1006.1 |
| 20260505064836 | 71 | 168 | 8.0 | 15.0 | 0.00 | 0.00 | 0.00 | 83 | 1006.0 |
| 20260505064333 | 71 | 155 | 9.0 | 18.0 | 0.00 | 0.00 | 0.00 | 82 | 1005.9 |
| 20260505063831 | 71 | 148 | 11.0 | 18.0 | 0.00 | 0.00 | 0.00 | 82 | 1005.9 |
| 20260505063326 | 71 | 155 | 10.0 | 12.0 | 0.00 | 0.00 | 0.00 | 82 | 1006.0 |
| 20260505062823 | 71 | 170 | 11.0 | 17.0 | 0.00 | 0.00 | 0.00 | 82 | 1006.2 |
| 20260505062321 | 71 | 152 | 14.0 | 20.0 | 0.00 | 0.00 | 0.00 | 82 | 1006.1 |
| 20260505061818 | 71 | 170 | 8.0 | 18.0 | 0.00 | 0.00 | 0.00 | 81 | 1006.3 |
| 20260505061316 | 71 | 149 | 10.0 | 16.0 | 0.00 | 0.00 | 0.00 | 81 | 1006.3 |
| 20260505060813 | 71 | 170 | 9.0 | 20.0 | 0.00 | 0.00 | 0.00 | 81 | 1006.2 |
| 20260505060310 | 72 | 142 | 9.0 | 20.0 | 0.00 | 0.00 | 0.00 | 80 | 1006.3 |
| 20260505055805 | 72 | 150 | 9.0 | 22.0 | 0.00 | 0.00 | 0.00 | 80 | 1006.1 |
| 20260505055303 | 71 | 147 | 12.0 | 17.0 | 0.00 | 0.00 | 0.00 | 80 | 1006.3 |
| 20260505054759 | 71 | 132 | 13.0 | 18.0 | 0.00 | 0.00 | 0.00 | 80 | 1006.4 |
| 20260505054257 | 72 | 167 | 9.0 | 20.0 | 0.00 | 0.00 | 0.00 | 79 | 1006.3 |
| 20260505053755 | 72 | 177 | 10.0 | 19.0 | 0.00 | 0.00 | 0.00 | 80 | 1006.1 |
| 20260505053251 | 72 | 141 | 13.0 | 16.0 | 0.00 | 0.00 | 0.00 | 79 | 1006.4 |
| 20260505052748 | 72 | 164 | 13.0 | 19.0 | 0.00 | 0.00 | 0.00 | 79 | 1006.5 |
| 20260505052245 | 72 | 175 | 9.0 | 17.0 | 0.00 | 0.00 | 0.00 | 79 | 1006.7 |
| 20260505051742 | 72 | 152 | 12.0 | 17.0 | 0.00 | 0.00 | 0.00 | 79 | 1006.4 |
| 20260505051240 | 72 | 168 | 12.0 | 21.0 | 0.00 | 0.00 | 0.00 | 78 | 1006.5 |
| 20260505050738 | 72 | 190 | 10.0 | 18.0 | 0.00 | 0.00 | 0.00 | 78 | 1006.5 |
| 20260505050236 | 72 | 154 | 17.0 | 18.0 | 0.00 | 0.00 | 0.00 | 77 | 1006.5 |
| 20260505041706 | 73 | 164 | 15.0 | 18.0 | 0.00 | 0.00 | 0.00 | 74 | 1006.7 |
| 20260505041203 | 73 | 139 | 15.0 | 18.0 | 0.00 | 0.00 | 0.00 | 74 | 1006.7 |
| 20260505040700 | 73 | 142 | 10.0 | 17.0 | 0.00 | 0.00 | 0.00 | 74 | 1006.8 |
| 20260505040157 | 73 | 166 | 12.0 | 21.0 | 0.00 | 0.00 | 0.00 | 74 | 1006.7 |
| 20260505035654 | 73 | 153 | 10.0 | 12.0 | 0.00 | 0.00 | 0.00 | 75 | 1006.7 |
| 20260505035150 | 73 | 156 | 9.0 | 17.0 | 0.00 | 0.00 | 0.00 | 74 | 1006.6 |
| 20260505034647 | 73 | 154 | 13.0 | 17.0 | 0.00 | 0.00 | 0.00 | 74 | 1006.4 |
| 20260505034144 | 73 | 135 | 11.0 | 16.0 | 0.00 | 0.00 | 0.00 | 73 | 1006.6 |
| 20260505033640 | 73 | 140 | 11.0 | 19.0 | 0.00 | 0.00 | 0.00 | 73 | 1006.6 |
| 20260505033139 | 73 | 148 | 10.0 | 15.0 | 0.00 | 0.00 | 0.00 | 73 | 1006.8 |
| 20260505032636 | 73 | 152 | 10.0 | 18.0 | 0.00 | 0.00 | 0.00 | 73 | 1006.7 |
| 20260505032132 | 73 | 193 | 8.0 | 18.0 | 0.00 | 0.00 | 0.00 | 72 | 1006.7 |
| 20260505031630 | 73 | 169 | 7.0 | 14.0 | 0.00 | 0.00 | 0.00 | 72 | 1006.8 |
| 20260505031125 | 74 | 159 | 9.0 | 19.0 | 0.00 | 0.00 | 0.00 | 72 | 1006.8 |
| 20260505030623 | 74 | 129 | 7.0 | 15.0 | 0.00 | 0.00 | 0.00 | 72 | 1006.9 |
| 20260505030119 | 74 | 156 | 13.0 | 17.0 | 0.00 | 0.00 | 0.00 | 72 | 1007.0 |
| 20260505025614 | 74 | 141 | 9.0 | 14.0 | 0.00 | 0.00 | 0.00 | 72 | 1006.8 |
| 20260505025114 | 74 | 155 | 10.0 | 15.0 | 0.00 | 0.00 | 0.00 | 72 | 1006.7 |
| 20260505024610 | 74 | 160 | 9.0 | 14.0 | 0.00 | 0.00 | 0.00 | 72 | 1006.5 |
| 20260505024108 | 74 | 150 | 13.0 | 17.0 | 0.00 | 0.00 | 0.00 | 72 | 1006.3 |
| 20260505023605 | 74 | 152 | 13.0 | 16.0 | 0.00 | 0.00 | 0.00 | 72 | 1006.2 |
| 20260505023102 | 74 | 142 | 12.0 | 16.0 | 0.00 | 0.00 | 0.00 | 71 | 1006.3 |
| 20260505022600 | 74 | 156 | 8.0 | 13.0 | 0.00 | 0.00 | 0.00 | 71 | 1006.6 |
| 20260505022056 | 74 | 146 | 11.0 | 13.0 | 0.00 | 0.00 | 0.00 | 71 | 1006.4 |
| 20260505021553 | 74 | 154 | 8.0 | 13.0 | 0.00 | 0.00 | 0.00 | 71 | 1006.4 |
| 20260505021050 | 74 | 145 | 11.0 | 16.0 | 0.00 | 0.00 | 0.00 | 70 | 1006.6 |
| 20260505020550 | 74 | 159 | 7.0 | 15.0 | 0.00 | 0.00 | 0.00 | 71 | 1006.4 |
| 20260505020047 | 74 | 164 | 8.0 | 14.0 | 0.00 | 0.00 | 0.00 | 70 | 1006.4 |
| 20260505015544 | 74 | 153 | 13.0 | 15.0 | 0.00 | 0.00 | 0.00 | 70 | 1006.5 |
| 20260505015041 | 75 | 159 | 9.0 | 15.0 | 0.00 | 0.00 | 0.00 | 69 | 1006.5 |
| 20260505014537 | 75 | 160 | 9.0 | 12.0 | 0.00 | 0.00 | 0.00 | 69 | 1006.4 |
| 20260505014035 | 75 | 145 | 15.0 | 18.0 | 0.00 | 0.00 | 0.00 | 68 | 1006.5 |
| 20260505013532 | 75 | 147 | 10.0 | 13.0 | 0.00 | 0.00 | 0.00 | 68 | 1006.4 |
| 20260505013029 | 75 | 174 | 7.0 | 11.0 | 0.00 | 0.00 | 0.00 | 68 | 1006.3 |
| 20260505012527 | 75 | 152 | 10.0 | 14.0 | 0.00 | 0.00 | 0.00 | 68 | 1006.3 |
| 20260505012024 | 75 | 149 | 7.0 | 14.0 | 0.00 | 0.00 | 0.00 | 68 | 1006.4 |
| 20260505011519 | 75 | 172 | 11.0 | 15.0 | 0.00 | 0.00 | 0.00 | 67 | 1006.6 |
| 20260505011017 | 76 | 160 | 9.0 | 15.0 | 0.00 | 0.00 | 0.00 | 67 | 1006.5 |
| 20260505010512 | 76 | 188 | 5.0 | 13.0 | 0.00 | 0.00 | 0.00 | 66 | 1006.6 |
| 20260505010009 | 76 | 149 | 11.0 | 13.0 | 0.00 | 0.00 | 0.00 | 66 | 1006.4 |
| 20260505005505 | 76 | 180 | 7.0 | 15.0 | 0.00 | 0.00 | 0.00 | 66 | 1006.3 |
| 20260505005004 | 77 | 150 | 11.0 | 15.0 | 0.00 | 0.00 | 0.00 | 65 | 1006.6 |
| 20260505004500 | 77 | 160 | 9.0 | 14.0 | 0.00 | 0.00 | 0.00 | 65 | 1006.4 |
| 20260505003956 | 77 | 139 | 12.0 | 15.0 | 0.00 | 0.00 | 0.00 | 64 | 1006.4 |
| 20260505003454 | 77 | 148 | 10.0 | 16.0 | 0.00 | 0.00 | 0.00 | 64 | 1006.3 |
| 20260505002950 | 77 | 146 | 14.0 | 22.0 | 0.00 | 0.00 | 0.00 | 63 | 1006.6 |
| 20260505002446 | 78 | 165 | 11.0 | 21.0 | 0.00 | 0.00 | 0.00 | 62 | 1006.7 |
| 20260505001945 | 78 | 146 | 9.0 | 15.0 | 0.00 | 0.00 | 0.00 | 62 | 1006.6 |
| 20260505001442 | 78 | 145 | 12.0 | 22.0 | 0.00 | 0.00 | 0.00 | 62 | 1006.6 |
| 20260505000938 | 78 | 165 | 6.0 | 14.0 | 0.00 | 0.00 | 0.00 | 62 | 1006.5 |
| 20260505000437 | 78 | 148 | 13.0 | 20.0 | 0.00 | 0.00 | 0.00 | 62 | 1006.6 |
| 20260504235933 | 78 | 165 | 13.0 | 19.0 | 0.00 | 0.00 | 0.00 | 62 | 1006.7 |
| 20260504235431 | 78 | 165 | 13.0 | 18.0 | 0.00 | 0.00 | 0.00 | 61 | 1006.7 |
| 20260504234926 | 78 | 136 | 15.0 | 20.0 | 0.00 | 0.00 | 0.00 | 61 | 1006.7 |
| 20260504234424 | 78 | 160 | 11.0 | 13.0 | 0.00 | 0.00 | 0.00 | 61 | 1006.8 |
| 20260504233920 | 78 | 164 | 14.0 | 16.0 | 0.00 | 0.00 | 0.00 | 61 | 1006.8 |
| 20260504233416 | 78 | 184 | 8.0 | 17.0 | 0.00 | 0.00 | 0.00 | 60 | 1006.7 |
| 20260504232913 | 79 | 155 | 14.0 | 17.0 | 0.00 | 0.00 | 0.00 | 60 | 1006.8 |
| 20260504232410 | 79 | 167 | 11.0 | 25.0 | 0.00 | 0.00 | 0.00 | 59 | 1006.8 |
| 20260504231907 | 79 | 167 | 11.0 | 20.0 | 0.00 | 0.00 | 0.00 | 60 | 1006.9 |
| 20260504231403 | 79 | 149 | 17.0 | 20.0 | 0.00 | 0.00 | 0.00 | 59 | 1006.8 |
| 20260504230900 | 80 | 160 | 17.0 | 21.0 | 0.00 | 0.00 | 0.00 | 59 | 1006.9 |
| 20260504230357 | 79 | 176 | 12.0 | 18.0 | 0.00 | 0.00 | 0.00 | 59 | 1007.1 |
| 20260504225856 | 80 | 154 | 12.0 | 18.0 | 0.00 | 0.00 | 0.00 | 58 | 1007.2 |
| 20260504225352 | 80 | 156 | 10.0 | 17.0 | 0.00 | 0.00 | 0.00 | 57 | 1007.1 |
| 20260504224850 | 81 | 164 | 12.0 | 15.0 | 0.00 | 0.00 | 0.00 | 57 | 1007.2 |
| 20260504224346 | 80 | 149 | 11.0 | 21.0 | 0.00 | 0.00 | 0.00 | 57 | 1007.2 |
| 20260504223843 | 80 | 178 | 14.0 | 18.0 | 0.00 | 0.00 | 0.00 | 58 | 1007.2 |
| 20260504223338 | 80 | 173 | 9.0 | 20.0 | 0.00 | 0.00 | 0.00 | 58 | 1007.0 |
| 20260504222835 | 80 | 155 | 13.0 | 20.0 | 0.00 | 0.00 | 0.00 | 58 | 1007.2 |
| 20260504222332 | 80 | 192 | 13.0 | 18.0 | 0.00 | 0.00 | 0.00 | 57 | 1007.2 |
| 20260504221831 | 80 | 163 | 14.0 | 19.0 | 0.00 | 0.00 | 0.00 | 57 | 1007.2 |
| 20260504221327 | 80 | 213 | 10.0 | 18.0 | 0.00 | 0.00 | 0.00 | 57 | 1007.3 |
| 20260504220824 | 80 | 154 | 12.0 | 18.0 | 0.00 | 0.00 | 0.00 | 57 | 1007.6 |
| 20260504220321 | 80 | 150 | 12.0 | 21.0 | 0.00 | 0.00 | 0.00 | 56 | 1007.8 |
| 20260504215818 | 80 | 158 | 11.0 | 23.0 | 0.00 | 0.00 | 0.00 | 57 | 1007.7 |
| 20260504215314 | 80 | 161 | 13.0 | 21.0 | 0.00 | 0.00 | 0.00 | 57 | 1007.7 |
| 20260504214811 | 80 | 190 | 12.0 | 21.0 | 0.00 | 0.00 | 0.00 | 56 | 1007.7 |
| 20260504214308 | 80 | 154 | 15.0 | 26.0 | 0.00 | 0.00 | 0.00 | 56 | 1008.0 |
| 20260504213804 | 80 | 158 | 12.0 | 26.0 | 0.00 | 0.00 | 0.00 | 56 | 1008.2 |
| 20260504213300 | 81 | 152 | 14.0 | 22.0 | 0.00 | 0.00 | 0.00 | 55 | 1007.8 |
| 20260504212758 | 81 | 172 | 9.0 | 20.0 | 0.00 | 0.00 | 0.00 | 55 | 1008.1 |
| 20260504212254 | 80 | 160 | 15.0 | 26.0 | 0.00 | 0.00 | 0.00 | 55 | 1008.1 |
| 20260504211752 | 80 | 163 | 13.0 | 26.0 | 0.00 | 0.00 | 0.00 | 55 | 1008.2 |
| 20260504211247 | 80 | 155 | 12.0 | 23.0 | 0.00 | 0.00 | 0.00 | 56 | 1008.4 |
| 20260504210745 | 80 | 173 | 15.0 | 25.0 | 0.00 | 0.00 | 0.00 | 54 | 1008.4 |
| 20260504210242 | 80 | 180 | 13.0 | 22.0 | 0.00 | 0.00 | 0.00 | 55 | 1008.5 |
| 20260504205739 | 80 | 145 | 17.0 | 22.0 | 0.00 | 0.00 | 0.00 | 55 | 1008.8 |
| 20260504205237 | 80 | 176 | 8.0 | 17.0 | 0.00 | 0.00 | 0.00 | 54 | 1008.6 |
| 20260504204735 | 80 | 160 | 17.0 | 26.0 | 0.00 | 0.00 | 0.00 | 53 | 1008.7 |
| 20260504204233 | 81 | 152 | 14.0 | 21.0 | 0.00 | 0.00 | 0.00 | 54 | 1008.8 |
| 20260504203732 | 80 | 185 | 11.0 | 19.0 | 0.00 | 0.00 | 0.00 | 53 | 1008.9 |
| 20260504203229 | 80 | 141 | 16.0 | 21.0 | 0.00 | 0.00 | 0.00 | 53 | 1009.1 |
| 20260504202729 | 80 | 148 | 12.0 | 18.0 | 0.00 | 0.00 | 0.00 | 52 | 1009.2 |
| 20260504202226 | 80 | 163 | 11.0 | 18.0 | 0.00 | 0.00 | 0.00 | 55 | 1009.5 |
| 20260504201723 | 79 | 160 | 13.0 | 20.0 | 0.00 | 0.00 | 0.00 | 53 | 1009.6 |
| 20260504201220 | 80 | 172 | 14.0 | 23.0 | 0.00 | 0.00 | 0.00 | 53 | 1009.6 |
| 20260504200718 | 79 | 145 | 13.0 | 27.0 | 0.00 | 0.00 | 0.00 | 53 | 1009.7 |
| 20260504200214 | 79 | 177 | 9.0 | 19.0 | 0.00 | 0.00 | 0.00 | 53 | 1009.8 |
| 20260504195711 | 81 | 178 | 19.0 | 26.0 | 0.00 | 0.00 | 0.00 | 50 | 1009.9 |
| 20260504195206 | 80 | 151 | 12.0 | 16.0 | 0.00 | 0.00 | 0.00 | 52 | 1009.8 |
| 20260504194704 | 80 | 154 | 16.0 | 27.0 | 0.00 | 0.00 | 0.00 | 51 | 1010.1 |
| 20260504194200 | 80 | 180 | 9.0 | 17.0 | 0.00 | 0.00 | 0.00 | 51 | 1010.1 |
| 20260504193656 | 80 | 156 | 10.0 | 23.0 | 0.00 | 0.00 | 0.00 | 52 | 1010.2 |
| 20260504193154 | 79 | 173 | 15.0 | 21.0 | 0.00 | 0.00 | 0.00 | 52 | 1010.2 |
| 20260504192652 | 79 | 146 | 10.0 | 22.0 | 0.00 | 0.00 | 0.00 | 52 | 1010.5 |
| 20260504192150 | 79 | 153 | 12.0 | 19.0 | 0.00 | 0.00 | 0.00 | 52 | 1010.3 |
| 20260504191648 | 79 | 191 | 13.0 | 19.0 | 0.00 | 0.00 | 0.00 | 50 | 1010.7 |
| 20260504191144 | 79 | 202 | 9.0 | 20.0 | 0.00 | 0.00 | 0.00 | 50 | 1010.7 |
| 20260504190640 | 79 | 151 | 17.0 | 20.0 | 0.00 | 0.00 | 0.00 | 51 | 1010.7 |
| 20260504190137 | 79 | 168 | 14.0 | 21.0 | 0.00 | 0.00 | 0.00 | 50 | 1010.5 |
| 20260504185633 | 79 | 170 | 6.0 | 18.0 | 0.00 | 0.00 | 0.00 | 51 | 1010.7 |
| 20260504185130 | 78 | 150 | 7.0 | 23.0 | 0.00 | 0.00 | 0.00 | 51 | 1010.8 |
| 20260504184626 | 79 | 162 | 9.0 | 17.0 | 0.00 | 0.00 | 0.00 | 50 | 1010.9 |
| 20260504184121 | 78 | 150 | 13.0 | 22.0 | 0.00 | 0.00 | 0.00 | 48 | 1011.1 |
| 20260504183618 | 78 | 166 | 11.0 | 21.0 | 0.00 | 0.00 | 0.00 | 49 | 1011.0 |
| 20260504183116 | 78 | 155 | 13.0 | 25.0 | 0.00 | 0.00 | 0.00 | 48 | 1011.2 |
| 20260504182614 | 78 | 194 | 18.0 | 20.0 | 0.00 | 0.00 | 0.00 | 47 | 1011.4 |
| 20260504182111 | 78 | 167 | 13.0 | 17.0 | 0.00 | 0.00 | 0.00 | 47 | 1011.3 |
| 20260504181608 | 78 | 176 | 6.0 | 15.0 | 0.00 | 0.00 | 0.00 | 46 | 1011.3 |
| 20260504181105 | 78 | 127 | 10.0 | 24.0 | 0.00 | 0.00 | 0.00 | 48 | 1011.3 |
| 20260504180604 | 77 | 155 | 18.0 | 23.0 | 0.00 | 0.00 | 0.00 | 46 | 1011.4 |
| 20260504180103 | 78 | 164 | 18.0 | 18.0 | 0.00 | 0.00 | 0.00 | 47 | 1011.5 |
| 20260504175600 | 77 | 142 | 18.0 | 23.0 | 0.00 | 0.00 | 0.00 | 47 | 1011.8 |
| 20260504175056 | 77 | 140 | 17.0 | 20.0 | 0.00 | 0.00 | 0.00 | 49 | 1011.8 |
| 20260504174555 | 77 | 187 | 12.0 | 23.0 | 0.00 | 0.00 | 0.00 | 49 | 1011.7 |
| 20260504174051 | 77 | 152 | 12.0 | 17.0 | 0.00 | 0.00 | 0.00 | 49 | 1011.9 |
| 20260504173548 | 77 | 174 | 11.0 | 22.0 | 0.00 | 0.00 | 0.00 | 49 | 1012.0 |
| 20260504173045 | 76 | 178 | 8.0 | 27.0 | 0.00 | 0.00 | 0.00 | 51 | 1011.9 |
| 20260504172541 | 76 | 139 | 15.0 | 21.0 | 0.00 | 0.00 | 0.00 | 52 | 1012.0 |
| 20260504172038 | 75 | 150 | 15.0 | 24.0 | 0.00 | 0.00 | 0.00 | 51 | 1012.2 |
| 20260504171535 | 76 | 181 | 12.0 | 23.0 | 0.00 | 0.00 | 0.00 | 49 | 1012.4 |
| 20260504171032 | 75 | 124 | 15.0 | 22.0 | 0.00 | 0.00 | 0.00 | 52 | 1012.2 |
| 20260504170527 | 75 | 206 | 8.0 | 22.0 | 0.00 | 0.00 | 0.00 | 52 | 1012.4 |